SCP
0 0 0 0 0 0 0 0 0 0 0 0 1 0 0 0 1 1 1 2 2 1 1 1 2 3 3 2 2 2 1 1 1 1 1 1 1 1 1 2 2 2 2 2 2 3 3 3 2
0 0 0 0 0 0 0 0 0 0 0 0 0 0 1 1 1 1 1 2 1 1 1 1 2 3 3 2 2 2 1 1 1 1 1 1 1 1 1 1 2 2 2 2 2 3 3 3 2
0 0 0 0 0 0 0 0 0 0 0 1 1 1 1 1 2 2 1 1 1 1 1 1 2 2 2 2 2 2 1 1 1 1 1 1 1 1 1 1 1 1 1 2 2 3 3 2 2
0 0 0 0 0 0 0 1 1 1 1 1 1 1 1 2 2 2 2 1 1 1 1 1 2 2 2 2 2 2 2 1 1 1 1 1 1 2 2 2 2 1 1 1 2 2 2 2 2
0 0 0 0 0 0 0 1 2 2 2 2 2 2 2 2 3 3 2 1 1 1 1 1 2 2 2 2 2 2 2 1 1 1 1 1 2 3 4 3 2 1 1 1 1 2 2 2 2
0 0 0 0 0 0 0 1 2 2 3 3 3 3 2 3 4 4 3 2 1 1 1 1 2 2 2 2 2 2 2 2 1 1 1 1 2 3 4 3 2 1 1 1 1 1 1 1 1
0 0 0 0 0 0 0 1 2 2 3 3 3 3 2 2 3 4 3 2 1 1 1 1 1 1 2 2 2 1 1 2 2 1 1 1 2 3 3 2 2 2 2 1 1 1 1 1 2
0 0 0 0 0 0 1 1 2 2 2 2 2 3 2 2 3 4 3 2 2 1 1 1 1 1 1 1 1 1 1 1 2 2 1 1 1 2 2 2 2 2 2 1 1 2 2 2 2
0 0 0 0 0 1 2 2 2 2 2 2 2 2 2 3 4 4 3 2 3 3 2 1 1 1 1 1 1 1 1 1 1 1 1 1 1 1 1 2 2 2 1 1 1 2 2 2 2
0 0 0 0 1 1 2 2 2 1 1 1 2 2 2 3 3 3 3 2 3 3 3 2 1 1 1 1 1 1 1 1 1 1 1 1 0 1 1 1 2 2 1 1 1 2 2 2 2
0 0 0 0 1 1 1 1 1 1 1 1 2 2 2 2 2 3 2 2 2 3 3 2 1 1 1 1 1 1 1 1 1 1 1 1 0 1 1 1 1 1 1 1 1 1 2 2 2
0 0 0 0 0 1 1 1 1 1 1 2 2 2 2 2 2 2 2 2 2 2 2 2 1 1 1 1 1 1 1 1 1 1 1 1 1 1 1 1 1 1 1 1 1 1 1 1 1
0 0 0 0 0 1 1 2 2 2 2 2 3 3 3 2 1 2 2 2 3 3 2 2 1 1 1 1 1 1 1 1 1 1 1 1 1 1 1 1 1 1 1 1 1 1 1 1 1
0 0 0 0 0 1 1 2 2 2 2 2 3 3 3 2 2 2 3 3 3 3 3 2 2 1 1 2 2 2 2 1 1 1 1 1 1 1 2 2 1 1 1 1 1 1 2 2 1
0 0 0 0 0 0 1 1 2 2 2 2 2 2 3 3 4 3 3 4 4 4 3 2 2 2 2 2 2 2 2 2 1 1 1 2 2 2 2 2 2 1 1 1 1 2 2 1 1
0 0 0 0 0 0 1 1 1 1 1 1 1 2 3 5 4 3 3 4 4 4 3 2 3 3 3 3 3 3 3 3 2 2 3 3 3 3 3 2 2 1 1 1 1 1 1 1 1
0 0 0 0 0 0 1 1 2 2 2 2 2 3 4 4 3 2 2 3 3 3 3 3 3 5 6 6 6 6 5 5 5 5 4 4 4 3 3 2 2 2 2 2 1 1 1 1 1
0 0 0 0 0 0 1 2 2 2 3 3 4 4 5 3 2 2 2 2 2 3 3 3 4 6 7 8 8 8 8 7 7 7 5 4 3 3 3 3 3 2 2 2 1 1 1 1 0
0 0 0 0 0 1 1 2 2 2 3 3 3 4 4 3 3 2 2 2 2 3 3 3 4 6 7 8 8 9 9 8 8 6 4 3 3 3 3 3 3 2 2 1 1 1 1 1 0
0 0 0 0 0 1 1 1 1 2 2 3 3 3 2 3 3 3 2 2 3 3 4 4 5 5 5 6 6 7 8 7 6 4 3 3 3 3 3 3 3 2 1 1 1 1 1 1 1
0 0 0 0 0 1 1 1 1 1 2 3 4 4 3 2 3 4 4 3 3 3 4 5 6 5 5 5 5 6 6 5 4 3 3 3 4 3 2 2 2 1 1 1 1 1 1 1 1
0 0 0 0 0 1 1 1 1 1 2 3 4 4 4 3 3 4 4 4 5 5 6 7 8 7 6 6 6 6 5 4 4 4 4 3 3 3 2 2 2 1 1 1 1 1 1 1 1
0 0 0 0 0 0 1 1 1 1 2 2 3 4 4 4 3 4 5 6 8 9 10 10 10 10 8 7 6 6 5 4 5 6 6 4 3 2 2 2 2 2 2 1 1 1 1 1 1
0 0 0 0 0 0 0 0 1 1 2 2 3 4 5 4 4 5 7 10 13 14 15 15 14 11 9 7 6 5 4 4 6 8 8 5 3 3 3 3 3 3 3 2 2 1 1 1 1
0 0 0 0 0 0 0 0 1 1 2 2 4 5 6 5 6 9 11 13 14 15 15 15 13 11 9 7 6 5 4 4 7 10 9 6 4 3 2 3 3 4 4 3 3 2 2 2 2
0 0 0 0 0 0 0 0 1 1 3 4 5 6 7 7 8 10 11 10 11 11 11 11 9 8 8 7 6 5 4 5 7 10 9 7 4 3 2 2 3 3 3 3 3 3 2 2 2
0 0 0 0 0 0 0 0 1 2 4 6 7 7 8 8 8 7 7 6 6 7 8 8 7 7 8 8 7 6 5 6 8 9 8 6 4 3 2 2 2 2 2 3 3 3 3 3 3
0 0 0 0 0 0 0 0 1 3 5 7 7 6 6 6 6 5 5 4 5 6 7 7 7 8 9 8 7 6 6 6 7 7 6 5 4 3 2 2 2 2 2 2 3 3 3 3 3
0 0 0 0 0 0 0 1 1 2 4 5 4 4 4 5 5 5 5 5 5 6 7 8 9 10 9 8 6 5 5 6 7 7 5 4 4 4 3 2 2 2 2 2 2 2 2 2 2
0 0 0 0 0 0 0 1 2 2 3 3 3 3 3 4 4 5 5 5 5 7 9 10 11 11 10 8 6 5 4 6 7 7 6 5 5 4 4 3 2 2 2 2 2 1 1 2 2
Wind_Speed
3 3 2 2 4 5 2 2 2 4 6 6 9 10 9 7 5 6 3 11 13 11 8 10 12 13 13 13 13 12 11 11 11 11 10 10 10 10 10 10 10 9 9 10 10 10 9 9 9
2 3 2 3 5 3 2 0 4 4 7 9 10 11 10 8 7 9 6 11 14 12 8 9 12 13 13 13 12 11 11 11 11 10 10 9 9 9 10 10 9 9 9 9 10 9 8 8 8
2 2 3 4 2 3 3 1 5 4 6 6 6 6 6 6 8 7 9 14 12 10 7 10 13 13 13 13 12 11 11 10 10 10 9 9 8 9 9 9 9 9 8 8 9 8 7 7 6
1 3 4 4 1 3 4 3 5 6 5 7 8 7 5 4 6 9 15 15 13 9 7 9 13 13 13 12 12 11 10 10 9 9 9 8 9 9 9 9 9 9 8 8 8 7 7 6 5
3 4 4 3 3 3 3 4 6 7 4 7 10 8 5 4 12 16 16 15 13 9 6 8 13 13 12 12 11 10 10 9 9 9 8 8 9 9 9 9 9 9 8 7 7 6 6 6 5
4 4 3 2 4 3 1 5 8 10 9 7 9 8 3 6 12 14 15 13 12 11 7 7 13 14 12 11 11 10 9 9 9 8 8 8 9 9 8 8 8 8 7 7 6 5 5 5 4
3 3 2 2 2 2 1 4 8 8 8 5 7 7 4 5 9 12 13 12 11 10 8 6 6 9 11 11 10 10 9 8 8 8 7 8 8 8 8 7 7 7 7 6 6 5 4 3 3
4 3 1 2 1 2 0 3 6 9 7 7 6 8 6 7 9 11 11 10 9 8 7 6 5 5 5 6 10 10 9 8 8 8 7 7 7 6 6 5 6 7 6 6 5 4 3 2 2
3 4 2 3 2 2 1 6 4 5 8 5 4 6 10 12 12 12 10 8 7 7 5 6 6 5 5 5 7 7 8 7 6 5 6 5 2 2 2 4 5 6 5 5 4 3 3 2 2
4 3 6 5 3 2 2 5 6 5 7 6 7 8 12 12 12 12 12 10 9 8 7 6 6 6 5 5 4 3 3 3 2 2 2 2 2 1 2 3 4 5 4 3 2 2 1 1 1
3 4 5 4 3 2 2 1 2 9 5 8 12 13 12 12 10 10 10 10 10 10 8 7 7 6 5 3 4 2 1 2 2 2 2 2 2 1 1 1 1 1 2 1 1 1 1 1 1
1 4 4 3 2 1 2 2 4 5 7 11 14 14 12 11 9 9 9 9 8 9 8 6 6 6 5 4 4 3 2 2 2 2 2 2 2 1 2 1 1 1 1 1 1 1 1 1 0
1 5 5 3 2 2 4 3 5 4 8 10 12 12 12 11 8 7 7 8 8 7 7 7 6 6 5 4 3 4 3 3 3 2 2 3 2 2 2 1 1 1 1 1 1 1 0 1 1
3 3 4 3 2 2 5 2 5 4 9 10 12 11 10 10 9 8 8 7 6 6 6 6 6 6 6 4 3 3 3 3 3 2 2 3 2 2 2 2 2 1 1 2 1 1 1 1 1
2 4 6 4 2 2 5 3 2 7 10 10 10 10 10 9 8 9 8 8 7 7 6 5 6 5 5 5 4 3 3 3 2 2 2 3 3 3 3 2 2 1 1 2 2 2 2 2 2
5 4 4 6 1 1 6 3 4 6 12 10 9 9 9 8 8 8 8 8 7 6 6 5 6 6 5 4 4 3 3 3 2 2 2 3 3 3 3 2 1 1 2 2 2 2 2 2 1
4 2 5 8 3 1 4 4 4 6 10 10 9 9 9 8 7 7 8 9 8 7 6 5 5 6 5 5 4 3 3 3 2 2 2 2 3 4 3 2 1 2 2 2 2 2 2 1 1
4 4 4 5 4 1 2 3 4 4 8 9 8 8 9 9 9 9 8 8 8 7 6 5 5 5 5 4 3 3 3 2 2 2 2 3 3 3 3 2 2 2 2 2 1 2 1 1 0
4 4 6 7 5 1 3 4 5 5 6 6 7 7 8 8 7 8 8 8 7 6 6 6 5 4 4 3 3 3 2 2 2 2 3 3 3 3 3 3 2 2 2 1 2 2 2 1 1
3 4 7 7 4 1 1 2 3 4 7 9 10 10 9 7 6 7 7 7 8 8 7 6 5 5 4 3 3 3 3 2 2 1 2 2 3 3 3 3 2 2 2 2 2 2 2 0 1
5 5 6 5 4 3 3 4 3 3 1 4 7 9 10 11 10 9 9 8 8 8 8 7 5 5 4 4 3 3 2 2 2 1 0 1 3 3 3 3 3 2 2 2 1 2 2 1 0
7 8 6 3 0 3 2 1 5 2 1 3 5 6 7 8 8 8 9 8 9 9 8 7 6 6 5 5 5 5 4 2 2 1 1 1 2 3 4 4 3 2 2 2 2 2 1 2 1
8 7 5 3 1 1 1 2 6 1 2 4 3 5 6 7 8 8 8 9 8 7 7 6 5 5 5 5 6 5 3 2 2 2 2 1 1 2 3 3 3 2 2 2 2 2 2 2 2
4 2 4 4 5 2 5 4 5 4 7 5 3 4 6 6 7 7 7 7 6 6 6 6 6 4 4 5 6 6 5 3 3 2 2 1 0 0 1 2 3 3 2 2 2 2 2 1 1
4 6 5 5 4 6 3 2 5 5 4 5 5 4 5 5 6 7 7 6 6 6 6 6 6 4 3 4 4 5 5 5 4 3 2 2 1 1 2 2 2 2 2 2 2 2 2 2 2
2 8 7 4 4 5 3 1 4 1 3 5 5 5 5 5 5 5 6 6 5 4 5 6 6 6 5 5 4 3 4 3 3 3 3 3 2 2 2 2 2 2 3 3 2 1 2 1 2
2 2 7 7 1 1 3 2 3 4 5 5 6 6 5 5 4 4 4 4 4 4 4 6 6 5 5 5 4 3 4 3 3 3 2 2 2 2 2 2 2 2 3 3 3 2 2 2 2
4 4 5 5 3 2 3 2 3 2 1 3 4 4 4 4 3 3 3 3 3 4 4 4 4 4 4 4 4 4 4 4 3 3 2 2 2 2 2 2 2 2 2 2 3 2 2 2 1
3 3 4 4 5 5 3 5 4 6 5 4 4 4 5 5 5 4 3 3 3 4 4 4 3 3 3 3 3 4 3 4 4 3 3 3 2 2 3 3 3 2 2 2 2 3 3 3 2
3 2 4 3 2 3 3 6 3 3 3 3 2 3 4 5 4 4 3 3 3 3 4 3 3 3 3 3 3 3 3 3 4 4 4 4 4 3 3 3 3 3 2 2 3 3 3 3 3
Wind_Direction
192 184 150 96 56 49 13 291 76 54 49 62 79 85 82 70 103 132 141 137 135 136 136 132 128 125 120 115 112 109 106 104 101 100 100 100 101 104 110 112 112 110 111 117 121 120 119 121 122
184 172 88 57 74 62 303 258 82 89 126 110 84 83 79 70 86 114 126 141 137 136 137 134 132 128 124 119 116 113 108 105 103 101 101 103 104 106 111 115 114 112 113 117 123 120 122 124 126
201 167 92 62 85 162 212 191 102 82 112 101 87 63 73 99 114 134 147 142 135 134 138 139 135 130 127 124 120 117 113 109 107 103 102 102 106 110 114 116 115 115 116 118 121 121 119 125 127
80 55 51 65 292 225 186 202 119 88 65 72 93 71 63 99 129 138 139 138 134 136 140 142 137 132 130 129 126 123 119 115 110 105 102 102 107 114 118 117 119 120 122 123 124 124 122 123 125
66 68 44 11 294 248 184 163 126 103 82 89 94 92 67 55 116 131 136 137 136 138 142 144 138 135 134 132 130 128 126 121 114 107 106 106 106 108 111 116 124 126 126 128 129 128 125 126 127
54 66 64 318 300 287 188 140 106 109 110 106 100 98 82 117 123 135 135 137 139 141 143 146 143 140 138 135 133 131 130 127 120 114 110 110 110 109 110 115 123 127 129 132 133 129 121 120 125
116 102 172 235 283 313 153 132 120 127 120 121 121 101 111 143 137 134 131 132 135 139 141 144 146 142 141 140 140 137 133 130 128 122 118 116 118 119 117 118 127 132 137 138 139 136 131 131 129
147 102 323 264 246 275 343 93 127 126 119 129 120 126 154 171 139 128 126 129 132 138 144 145 142 142 142 145 147 144 140 137 135 132 128 128 128 129 129 129 136 142 144 143 141 134 132 127 117
100 78 252 240 221 236 110 100 95 85 106 107 105 133 151 147 130 124 123 126 134 143 148 151 151 148 146 150 154 150 148 147 145 144 143 139 121 123 133 142 141 146 152 145 136 126 119 107 113
109 152 236 224 209 192 106 120 132 100 91 88 92 109 133 136 132 133 138 144 149 157 159 158 158 160 162 160 144 149 151 146 140 140 136 122 126 142 146 148 149 145 144 138 119 112 90 48 72
157 196 251 265 234 159 112 121 111 124 131 156 149 149 149 140 137 139 145 154 163 165 162 164 162 161 164 154 146 154 152 146 148 151 141 128 119 121 108 101 121 124 128 107 96 73 50 52 70
209 265 244 247 253 177 139 123 102 132 170 165 155 152 146 139 143 144 145 147 150 153 158 160 159 156 162 151 152 156 152 149 150 157 144 129 119 117 118 111 116 104 100 107 92 100 75 30 58
237 269 274 257 239 171 109 111 119 131 138 141 137 134 137 139 138 139 141 141 143 145 155 159 153 153 152 148 156 149 154 151 152 147 142 133 131 139 137 120 113 127 122 121 119 112 74 41 46
242 270 286 268 244 165 119 125 108 154 137 137 139 142 143 143 141 136 136 136 139 146 152 155 151 153 148 147 149 149 151 148 139 140 145 140 138 137 130 119 118 124 131 126 124 114 90 86 81
346 351 324 306 254 189 100 41 148 167 141 139 147 145 141 142 141 143 149 143 143 148 147 147 151 151 150 148 149 146 149 143 144 146 137 126 124 126 123 119 113 118 107 108 101 80 73 79 72
15 16 316 294 292 261 113 204 234 163 147 153 159 152 146 149 152 153 150 137 137 137 138 149 151 146 145 140 138 136 137 138 142 137 129 125 120 124 119 117 115 107 92 94 101 90 80 64 64
12 315 284 296 291 208 130 194 221 168 157 163 165 157 153 151 152 156 153 145 144 145 140 140 141 143 144 138 127 125 126 130 138 133 133 133 122 126 123 127 124 105 89 80 99 87 102 95 66
245 267 283 277 290 60 144 202 211 174 159 164 163 159 157 160 171 165 154 148 141 139 140 134 133 139 136 127 115 106 106 120 130 136 145 142 131 129 125 121 113 104 90 72 82 98 80 110 128
212 257 280 280 277 259 198 202 205 180 159 161 165 162 162 170 174 159 151 148 136 134 137 132 128 135 133 136 141 140 146 152 142 155 156 142 134 132 126 117 107 108 114 120 115 107 88 50 66
235 270 284 287 287 204 173 229 220 190 179 176 171 168 164 162 158 161 156 152 148 150 149 144 145 144 147 161 159 152 148 154 154 154 138 142 135 136 140 127 127 124 118 101 95 107 105 129 105
253 228 242 256 313 356 79 349 307 290 188 169 172 166 165 168 168 169 167 164 155 155 159 158 151 147 149 138 118 108 87 71 67 76 105 154 139 137 131 134 134 134 135 144 139 130 128 144 339
256 243 229 227 50 285 117 265 280 250 269 205 192 174 167 164 160 164 166 167 167 168 163 156 152 146 141 134 134 136 139 150 175 175 175 145 135 142 143 143 143 144 144 149 161 134 137 135 139
232 244 234 225 188 332 341 148 275 250 249 239 199 173 164 163 159 156 162 165 162 156 153 152 141 135 140 142 144 141 135 149 141 129 127 138 135 154 151 149 148 149 157 157 144 129 127 141 148
225 2 8 41 73 313 243 174 258 231 215 205 182 172 166 165 156 151 151 143 142 141 147 150 146 150 154 151 150 150 148 145 134 133 152 161 129 170 164 156 159 163 165 170 172 156 146 149 135
65 75 25 353 358 257 256 167 244 254 198 169 163 149 140 133 141 148 146 144 146 148 153 161 156 158 174 163 162 162 158 155 157 160 168 172 182 215 215 184 180 178 182 182 167 155 161 167 156
190 133 153 201 237 279 333 214 262 296 125 124 130 129 133 132 138 138 144 143 150 164 170 171 163 168 174 169 169 159 157 157 167 173 175 189 198 209 207 198 198 200 196 191 176 178 196 178 177
146 180 169 148 215 285 285 275 321 36 71 83 100 103 115 130 129 131 135 143 155 171 179 173 169 170 173 170 163 162 163 165 176 182 182 189 200 200 189 195 204 207 201 198 183 191 209 193 194
147 150 88 109 147 266 284 256 239 248 144 105 112 125 125 116 108 105 133 149 157 167 171 166 159 165 163 164 170 171 178 178 181 179 186 187 198 196 182 195 200 214 214 207 191 192 203 192 208
13 42 95 118 151 166 242 267 238 197 190 176 176 156 145 145 147 149 148 162 158 145 142 142 147 152 156 167 170 169 184 187 183 185 191 190 190 185 187 199 203 213 224 213 190 199 193 193 207
123 137 127 136 245 173 180 266 297 176 184 177 169 154 143 140 142 143 141 136 132 127 130 147 150 164 174 172 163 176 192 192 188 196 196 191 187 189 191 196 197 207 213 210 200 205 200 196 202